Location: Fort Wayne
(41.1310°N, 85.1290°W)
Time: 17:51:55
(UTC-04:00)

Daily predictions for brighter satellites

Satellite Brightness Start Highest point End
(mag) Time Altitude Azimuth Time Altitude Azimuth Time Altitude Azimuth
CZ-4 R/B 3.7 19:55:20 10° SSW 19:59:01 31° W 20:02:47 10° NNW
Geosat 4.2 19:54:44 10° SE 19:59:36 53° ENE 20:04:30 10° NNW
Cosmos 2150 Rocket 4.2 19:56:08 10° N 20:01:23 55° ENE 20:06:40 10° SE
SKYMED 2 3.9 19:57:10 10° N 20:01:30 73° WNW 20:05:49 10° SSW
Cosmos 1606 Rocket 3.5 19:59:49 10° S 20:04:08 70° E 20:08:27 10° NNE
Cosmos 304 Rocket 4.3 20:01:50 10° SSE 20:06:10 35° ESE 20:10:30 10° NE
Cosmos 1953 Rocket 3.6 20:01:57 10° N 20:06:15 59° E 20:10:30 10° SSE
Cosmos 2058 Rocket 3.4 20:03:36 10° SSE 20:07:42 43° E 20:11:52 10° NNE
OPS 8737 4.5 20:04:42 10° SSW 20:08:31 86° SE 20:11:54 10° NE
Meteor 1-24 Rocket 4.5 20:04:20 10° N 20:09:43 34° ENE 20:14:56 10° SE
ORS 1 (USA 231) 4.4 20:09:51 10° W 20:12:48 72° S 20:15:28 12° E
Cosmos 1943 Rocket 2.4 20:07:16 10° NNW 20:12:51 76° WSW 20:18:26 10° SSE
Cosmos 389 Rocket 2.6 20:09:22 10° SSW 20:12:52 79° W 20:16:22 10° N
USA 229 DEB 4.0 20:08:14 10° NW 20:15:25 79° WSW 20:22:45 10° SSE
USA 229 4.0 20:08:20 10° NW 20:15:31 80° WSW 20:22:51 10° SSE
TIMED 4.5 20:11:29 10° NNW 20:15:52 72° ENE 20:20:12 10° SSE
Cosmos 841 Rocket 3.6 20:11:55 10° S 20:16:52 51° ESE 20:21:51 10° NNE
Cosmos 468 Rocket 4.5 20:12:06 10° SSW 20:17:16 67° WNW 20:22:32 10° NNE
Cosmos 1356 Rocket 4.1 20:13:17 10° N 20:17:16 35° ENE 20:21:13 10° SE
SJ-6B 3.3 20:14:37 10° SE 20:18:22 39° ENE 20:22:03 10° N
NOSS 3-1 (A) 4.3 20:12:30 10° NNW 20:19:50 52° NE 20:27:57 10° ESE
Cosmos 1937 Rocket 3.5 20:14:43 10° NNW 20:20:03 89° ENE 20:25:19 10° SSE
Meteor 2-13 Rocket 4.4 20:16:46 10° S 20:22:48 69° E 20:28:49 10° NNE
Cosmos 1825 Rocket 4.3 20:20:15 10° NNW 20:24:36 59° W 20:28:57 10° S
ALOS 2.4 20:19:57 10° S 20:24:37 78° WSW 20:29:18 10° NNW
Cosmos 2298 Rocket 4.2 20:20:57 10° NNW 20:26:18 80° WSW 20:31:37 10° SSE
NOSS 3-1 (C) 4.1 20:21:33 10° NNW 20:29:09 72° NE 20:37:34 10° SE
HJ-1C 3.5 20:31:58 10° SSE 20:35:13 53° ENE 20:38:31 10° N
Cosmos 1763 Rocket 3.6 20:31:56 10° SSW 20:37:01 78° WNW 20:42:13 10° NNE
H-2A R/B 2.6 20:33:24 10° SSE 20:37:05 75° ENE 20:40:51 10° N
FREGAT/IRIS 2.7 20:34:30 10° S 20:37:32 77° W 20:40:34 10° NNW
Cosmos 540 Rocket 3.9 20:32:55 10° S 20:37:36 38° ESE 20:42:20 10° NE
SL-08 ROCKET BODY 4.3 20:31:58 10° S 20:37:49 88° E 20:43:48 10° N
Meteor 2-5 Rocket 4.0 20:41:38 10° NNW 20:47:30 76° W 20:53:12 10° S
Cosmos 1656 Rocket 3.7 20:43:35 10° NNW 20:49:16 88° WSW 20:54:49 10° SSE
Meteor 1-22 Rocket 4.1 20:44:06 10° S 20:49:48 69° E 20:55:17 10° NNE
MOS 1-B Rocket 4.3 20:46:10 12° SE 20:51:39 44° ENE 20:57:00 10° N
Cosmos 1766 3.1 20:50:55 10° S 20:54:49 72° E 20:58:44 10° NNE
COSMOS 2406 3.1 20:50:08 10° SSW 20:55:46 69° ESE 21:01:29 10° NNE
Thor Agena Rocket 4.4 20:50:49 10° N 20:55:55 53° WNW 21:00:57 10° SW
Cosmos 1707 4.4 20:53:07 10° NNW 20:56:46 37° W 21:00:23 10° SSW
BREEZE M DEB (TANK) 2.9 20:52:09 10° WNW 20:59:08 88° NNE 21:00:21 37° ESE
Cosmos 1758 4.2 21:04:38 31° ENE 21:04:38 31° ENE 21:07:28 10° NNE
Cosmos 2154 Rocket 4.1 20:58:58 10° SSE 21:04:57 52° E 21:11:00 10° NNE
Spot 2 Rocket 3.6 21:01:55 22° SE 21:05:05 55° ENE 21:10:00 10° N
Elektron 1 4.4 21:04:27 10° NNW 21:07:32 39° NE 21:07:32 39° NE
Cosmos 2074 Rocket 4.1 21:02:18 10° SSW 21:08:29 77° W 21:14:43 10° N
Cosmos 836 Rocket 4.4 21:03:51 10° SSW 21:09:07 81° ESE 21:14:25 10° NNE
Resurs 1-3 3.5 21:06:53 26° SSE 21:09:12 64° ENE 21:13:34 10° N
Cosmos 1544 3.1 21:09:23 10° S 21:12:58 77° W 21:16:36 10° N
Cosmos 1939 Rocket 3.6 21:16:00 34° NE 21:16:00 34° NE 21:19:02 10° N
Cosmos 2341 Rocket 4.2 21:10:05 12° SSE 21:15:32 44° E 21:21:24 10° NNE
Cosmos 1674 3.9 21:12:08 10° N 21:14:20 26° NE 21:14:20 26° NE
In-Cosmos 22 4.3 21:10:03 10° N 21:15:45 84° W 21:21:31 10° S
Cosmos 1356 3.6 21:25:48 10° N 21:28:52 66° NNW 21:28:52 66° NNW
Cosmos 1805 3.3 21:25:54 10° SSW 21:29:47 74° W 21:33:42 10° N
Cosmos 1125 Rocket 3.5 21:24:35 10° NNW 21:29:54 82° WSW 21:32:24 32° SSE
Resurs 01 Rocket 1.8 21:28:06 26° S 21:30:33 69° WSW 21:34:59 10° NNW
FALCON 9 R/B 2.7 21:30:32 10° WSW 21:33:58 42° S 21:34:48 40° SSE
GEOS 3 Rocket 3.8 21:34:02 51° ESE 21:34:02 51° ESE 21:39:11 10° SSW
CZ-2D R/B 4.4 21:32:58 19° SSW 21:35:17 41° W 21:38:55 10° NNW
GP-B 3.2 21:31:45 10° N 21:36:12 74° W 21:38:38 26° SSW
Nadezhda 3 Rocket 3.9 21:30:40 10° N 21:37:01 88° E 21:40:53 25° S
Envisat 3.0 21:34:58 33° S 21:37:20 81° WSW 21:42:27 10° NNW
Cosmos 372 Rocket 4.0 21:33:43 10° NNW 21:38:59 77° WSW 21:40:49 41° S
ISS -1.0 21:36:06 10° SW 21:36:16 11° SW 21:36:16 11° SW
Cosmos 1812 Rocket 4.1 21:36:44 10° SSW 21:41:06 58° W 21:45:31 10° N
Cosmos 2278 4.2 21:41:05 10° NNW 21:46:08 42° NE 21:46:08 42° NE
H-2A R/B 4.1 21:49:43 13° NNE 21:49:43 13° NNE 21:50:44 10° NNE
Meteor 2-21 4.5 21:49:26 56° E 21:49:26 56° E 21:55:07 10° NNE
Cosmos 1953 3.7 21:58:27 33° N 21:58:27 33° N 22:00:51 10° N
ATLAS 2AS CENTAUR R/B 3.3 21:54:15 10° NNW 22:02:01 48° NE 22:02:57 46° ENE
Cosmos 1295 Rocket 4.3 22:00:05 44° S 22:02:13 89° W 22:08:20 10° N
Okean 3 Rocket 4.4 22:00:02 10° N 22:03:17 47° NNW 22:03:17 47° NNW
SL-8 Rocket 4.0 22:11:19 65° NE 22:11:19 65° NE 22:16:38 10° N
Cosmos 1697 Rocket 3.8 22:06:05 10° N 22:09:50 33° NNE 22:09:50 33° NNE
Cosmos 1980 Rocket 3.9 22:07:35 10° N 22:10:25 21° NNE 22:10:25 21° NNE
Cosmos 1809 Rocket 4.3 22:13:38 84° SW 22:13:49 87° W 22:19:59 10° N
Cosmos 1656 4.3 22:11:04 10° NNW 22:15:21 47° N 22:15:21 47° N
BREEZE-M DEB (TANK) 4.3 22:07:15 10° WNW 22:23:31 47° N 22:24:49 42° NNE
ATLAS 2AS CENTAUR R/B 4.2 23:45:38 10° NW 23:50:23 33° WNW 23:50:23 33° WNW
